Skip Page Navigation
NASA JPL Caltech
NASA Logo - Jet Propulsion Laboratory + View the NASA Portal
+ Near-Earth Object (NEO) Program
Search JPL
JPL Home Earth Solar System Stars & Galaxies Technology
JPL Solar System Dynamics
BODIES ORBITS EPHEMERIDES TOOLS PHYSICAL DATA DISCOVERY FAQ SITE MAP
JPL Small-Body Database Browser
Search: [ help ]  
(2007 RV9)
Classification: Apollo [NEO, PHA]          SPK-ID: 3384068
Ephemeris | Orbit Diagram | Orbital Elements | Physical Parameters | Close-Approach Data ]

[ hide orbit diagram ]
Orbit Diagram
Note: Make sure you have Java enabled on your browser to see the applet. This applet is provided as a 3D orbit visualization tool. The applet was implemented using 2-body methods, and hence should not be used for determining accurate long-term trajectories (over several years or decades) or planetary encounter circumstances. For accurate long-term ephemerides, please instead use our Horizons system.
Orbit Viewer

Additional Notes: the orbits shown in the applet are color coded. The planets are white lines, and the asteroid/comet is a blue line. The bright white line indicates the portion of the orbit that is above the ecliptic plane, and the darker portion is below the ecliptic plane. Likewise for the asteroid/comet orbit, the light blue indicates the portion above the ecliptic plane, and the dark blue the portion below the ecliptic plane.

Orbit Viewer applet originally written and kindly provided by Osamu Ajiki (AstroArts), and further modified by Ron Baalke (JPL).


Orbital Elements at Epoch 2456400.5 (2013-Apr-18.0) TDB
Reference: JPL 29 (heliocentric ecliptic J2000)
 Element Value Uncertainty (1-sigma)   Units 
e .566661147642449 5.7093e-06  
a 1.939763846874128 2.2684e-05 AU
q .8405750392491032 1.2463e-06 AU
i 6.391906683912252 7.7331e-05 deg
node 340.7200738212329 6.8858e-05 deg
peri 116.3851830624473 0.00011885 deg
M 342.4966114880191 0.012244 deg
tp 2456448.477912699312
(2013-Jun-04.97791270)
0.034402 JED
period 986.7831340160172
2.70
0.017309
4.739e-05
d
yr
n .3648218008498679 6.3993e-06 deg/d
Q 3.038952654499154 3.5538e-05 AU
  Orbit Determination Parameters
   # obs. used (total)      129  
   data-arc span      196 days  
   first obs. used      2007-09-10  
   last obs. used      2008-03-24  
   planetary ephem.      DE405  
   SB-pert. ephem.      SB405-CPV-2  
   condition code      4  
   fit RMS      .60202  
   data source      ORB  
   producer      Otto Matic  
   solution date      2011-Sep-14 20:19:24  

Additional Information
 Earth MOID = .0171713 AU 
 T_jup = 3.682 
[ show covariance matrix ]

Ephemeris | Orbit Diagram | Orbital Elements | Physical Parameters | Close-Approach Data ]

Physical Parameter Table
Parameter Symbol Value Units Sigma Reference Notes
absolute magnitude H 20.154 mag .46104 29 autocmod 2.5a

[ show close-approach data ]
Ephemeris | Orbit Diagram | Orbital Elements | Physical Parameters | Close-Approach Data ]
ABOUT SSD CREDITS/AWARDS PRIVACY/COPYRIGHT GLOSSARY LINKS
FirstGov 2013-May-20 14:03 UT
(server date/time)  
NASA Home Page
Site Manager:   Donald K. Yeomans
Webmaster  Alan B. Chamberlin